#timestamp,LO_Frequency,Hit,StdDev 
1564376415.8,286047000.4,N
1564376435.6,286046998.3,N
1564376455.5,286047000.6,N
1564376475.3,286046998.5,N
1564376495.1,286046998.5,N
1564376515.9,286047000.6,N
1564376535.7,286047002.8,N
1564376555.6,286047000.0,N
1564376575.4,286047000.6,N
1564376595.2,286047000.4,N
1564376615.1,286047000.1,N
1564376616.0,286047000.1,N
1564376635.8,286047002.5,N
1564376655.7,286046999.9,N
1564376675.5,286047000.8,N
1564376695.3,286047000.8,N
1564376715.2,286047001.0,N
1564376735.0,286047001.0,N
1564376735.9,286047001.0,N
1564376755.7,286046999.9,N
1564376775.6,286046999.8,N
1564376795.4,286047001.9,N
1564376815.3,286047002.7,N
1564376835.1,286047000.3,N
1564376836.0,286047000.3,N
1564376855.8,286046999.9,N
1564376875.7,286047000.4,N
1564376895.5,286047000.2,N
1564376915.4,286047001.6,N
1564376935.2,286047002.0,N
1564376955.0,286047001.7,N
1564376955.9,286047001.7,N
1564376975.8,286047003.7,Y
1564376995.6,286047002.0,P
1564377015.5,286047001.5,N
1564377035.3,286047004.4,P
1564377055.1,286047001.6,N
1564377075.9,286047001.5,N
1564377095.7,286047001.5,N
1564377115.6,286047002.5,N
1564377135.4,286047001.6,N
1564377155.2,286047002.0,N
1564377175.1,286047001.8,N
1564377176.0,286047001.8,N
1564377195.8,286047002.7,Y
1564377215.6,286046998.7,P
1564377235.5,286046999.0,N
1564377255.3,286046998.8,N
1564377275.2,286046998.6,N
1564377295.9,286046998.6,N
1564377315.7,286047001.1,N
1564377335.6,286046998.5,N
1564377355.4,286047000.7,N
1564377375.2,286046999.2,N
1564377395.1,286046996.8,N
1564377396.0,286046996.8,N
1564377415.8,286046997.0,N
1564377435.7,286046999.6,N
1564377455.5,286046996.7,N
1564377475.4,286046999.2,N
1564377495.2,286046996.6,N
1564377515.0,286046997.0,N
1564377515.9,286046997.0,N
1564377535.8,286046996.6,N
1564377555.6,286046996.8,N
1564377575.4,286046997.8,N
1564377595.3,286046997.4,N
1564377615.1,286046997.6,N
1564377635.9,286046996.7,N
1564377655.7,286046998.0,N
1564377675.5,286046996.7,N
1564377695.4,286046995.4,Y
1564377715.2,286046999.2,P
1564377735.1,286046997.0,P
1564377736.0,286046997.0,P
1564377755.8,286046999.3,N
1564377775.7,286046997.0,Y
1564377795.5,286047000.9,P
1564377815.3,286047001.1,N
1564377835.2,286047000.5,N
1564377855.0,286047001.0,N
1564377855.9,286047001.0,N
1564377875.7,286046999.1,N
1564377895.6,286046999.4,N
1564377915.4,286046999.6,N
1564377935.3,286046998.9,N
1564377955.1,286046998.3,N
1564377975.8,286046999.1,N
1564377995.7,286046999.2,N
1564378015.5,286046998.9,N
1564378035.4,286046999.2,N
1564378055.2,286046999.1,N
1564378075.0,286046999.6,N
1564378075.9,286046999.6,N
1564378095.8,286046999.2,N
1564378115.6,286046999.3,N
1564378135.5,286046999.6,N
1564378155.3,286046999.1,N
1564378175.1,286046998.1,N
1564378195.9,286047001.2,N
1564378215.7,286047000.8,N
1564378235.6,286047000.8,N
1564378255.4,286047001.1,N
1564378275.2,286047001.2,N
1564378295.1,286047001.1,N
1564378296.0,286047001.1,N
1564378315.8,286047000.6,N
1564378335.7,286046999.9,N
1564378355.5,286047000.1,N
1564378375.3,286047000.5,N
1564378395.2,286046998.5,N
1564378415.9,286047001.1,N
1564378435.9,286047001.0,N
1564378455.7,286046998.2,N
1564378475.6,286047000.8,N
1564378495.4,286047000.7,N
1564378515.2,286046998.4,N
1564378535.1,286047000.0,N
1564378536.0,286047000.0,N
1564378555.8,286047000.5,N
1564378575.7,286046999.9,N
1564378595.5,286047000.6,N
1564378615.3,286047000.4,N
1564378635.2,286046999.5,N
1564378655.0,286047000.8,N
1564378655.9,286047000.8,N
1564378675.7,286046998.6,N
1564378695.6,286046998.3,N
1564378715.4,286046998.6,N
1564378735.3,286046999.1,N
1564378755.1,286047001.1,N
1564378775.8,286046999.7,N
1564378795.7,286047000.6,N
1564378815.5,286047000.6,N
1564378835.4,286047001.1,N
1564378855.2,286047000.7,N
1564378875.0,286046999.9,N
1564378875.9,286046999.9,N
1564378895.8,286047000.1,N
1564378915.6,286046999.9,N
1564378935.5,286047000.1,N
1564378955.3,286047000.1,N
1564378975.1,286046999.7,N
1564378995.9,286047002.2,N
1564379015.7,286047002.2,N
1564379035.5,286047002.6,N
1564379055.4,286047002.1,N
1564379075.2,286047001.9,N
1564379095.1,286047001.7,N
1564379096.0,286047001.7,N
1564379115.8,286047002.0,N
1564379135.6,286047001.8,N
1564379155.5,286047002.1,N
1564379175.3,286047001.7,N
1564379195.2,286047004.2,Y
1564379215.9,286047000.1,P
1564379235.7,286047002.3,P
1564379255.6,286047002.4,N
1564379275.4,286047000.1,N
1564379295.2,286047000.5,N
1564379315.1,286047000.1,N
1564379316.0,286047000.1,N
1564379335.8,286046999.8,N
1564379355.7,286046999.9,N
1564379375.5,286047001.1,N
1564379395.3,286046999.7,N
1564379415.2,286047000.9,N
1564379435.0,286047000.5,N
1564379435.9,286047000.5,N
1564379455.8,286047000.0,N
1564379475.6,286047002.7,Y
1564379495.4,286047002.4,P
1564379515.3,286047002.0,N
1564379535.1,286047002.2,N
1564379555.9,286047001.6,N
1564379575.7,286047003.8,Y
1564379595.5,286046999.7,P
1564379615.4,286047000.1,N
1564379635.2,286047002.7,P
1564379655.1,286047002.8,N
1564379656.0,286047002.8,N
1564379675.8,286047002.8,N
1564379695.6,286047000.8,N
1564379715.5,286046998.1,N
1564379735.3,286047000.9,N
1564379755.2,286046999.6,N
1564379775.9,286046999.1,N
1564379795.7,286046998.5,N
1564379815.6,286046998.4,N
1564379835.4,286047000.3,N
1564379855.2,286046999.9,N
1564379875.1,286047000.9,N
1564379876.0,286047000.9,N
1564379895.8,286047000.2,N
1564379915.7,286047002.8,N
1564379935.5,286047000.6,N
1564379955.3,286047001.1,N
1564379975.2,286046998.3,N
1564379995.0,286046998.9,N
1564379995.9,286046998.9,N
